Weather History for Lakeville, MN

Change the Weather History Date:

Saturday, February 18, 2012

  Actual Average Record
Temperature  
Mean Temperature 24 °F -  
Max Temperature 35 °F 29 °F 58 °F (1981)
Min Temperature 14 °F 16 °F -14 °F (1958)
Degree Days  
Heating Degree Days 40    
Moisture  
Dew Point 15 °F    
Average Humidity 72    
Maximum Humidity 93    
Minimum Humidity 48    
Precipitation  
Precipitation 0.00 in - - ()
Sea Level Pressure  
Sea Level Pressure 30.18 in    
Wind  
Wind Speed 5 mph (West)    
Max Wind Speed 10 mph    
Max Gust Speed -    
Visibility 10 miles    
Events      
Averages and records for this station are not official NWS values.
T = Trace of Precipitation, MM = Missing Value Source: NWS Daily Summary

Daily Weather History Graph

Daily Weather History Graph

Search for Another Location

Airport:

Trip Planner

Search our weather history database for the weather conditions in past years. The results will help you decide how hot, cold, wet, or windy it might be!

Date:

Astronomy

Feb. 18, 2012 Rise Set
Actual Time 7:09 AM CST 5:45 PM CST
Civil Twilight 6:39 AM CST 6:14 PM CST
Nautical Twilight 6:05 AM CST 6:48 PM CST
Astronomical Twilight 5:31 AM CST 7:22 PM CST
Moon 4:55 AM CST (2/18) 2:37 PM CST (2/18)
Length of Visible Light 11h 35m
Length of Day
10h 35m
Waning Crescent, 11% of the Moon is Illuminated
Feb 18
Waning Crescent
Feb 21
New
Feb 29
First Quarter
Mar 8
Full
Mar 14
Last Quarter

Hourly Weather History & Observations

Time (CST) Temp. Windchill Dew Point Humidity Pressure Visibility Wind Dir Wind Speed Gust Speed Precip Events Conditions
12:04 AM 21.2 °F 10.1 °F 14.0 °F 74% 30.15 in 10.0 mi WNW 10.4 mph - N/A   Clear
12:24 AM 21.2 °F 10.1 °F 14.0 °F 74% 30.15 in 10.0 mi WNW 10.4 mph - N/A   Clear
12:44 AM 21.2 °F 10.9 °F 14.0 °F 74% 30.15 in 10.0 mi WNW 9.2 mph - N/A   Clear
1:05 AM 21.2 °F 10.9 °F 12.2 °F 68% 30.15 in 10.0 mi NW 9.2 mph - N/A   Clear
1:24 AM 19.4 °F 8.6 °F 12.2 °F 74% 30.16 in 10.0 mi NW 9.2 mph - N/A   Clear
1:44 AM 19.4 °F 8.6 °F 12.2 °F 74% 30.17 in 10.0 mi WNW 9.2 mph - N/A   Clear
2:05 AM 19.4 °F 9.5 °F 12.2 °F 74% 30.17 in 10.0 mi WNW 8.1 mph - N/A   Clear
2:24 AM 19.4 °F 9.5 °F 12.2 °F 74% 30.18 in 10.0 mi West 8.1 mph - N/A   Clear
2:44 AM 17.6 °F 7.3 °F 12.2 °F 79% 30.18 in 10.0 mi WNW 8.1 mph - N/A   Clear
3:05 AM 17.6 °F 8.2 °F 12.2 °F 79% 30.18 in 10.0 mi WNW 6.9 mph - N/A   Clear
3:24 AM 17.6 °F 8.2 °F 12.2 °F 79% 30.18 in 10.0 mi WNW 6.9 mph - N/A   Clear
3:44 AM 17.6 °F 8.2 °F 12.2 °F 79% 30.18 in 10.0 mi West 6.9 mph - N/A   Clear
4:05 AM 17.6 °F 9.3 °F 12.2 °F 79% 30.18 in 10.0 mi WNW 5.8 mph - N/A   Clear
4:24 AM 17.6 °F - 12.2 °F 79% 30.19 in 10.0 mi Calm Calm - N/A   Clear
4:44 AM 17.6 °F 12.3 °F 12.2 °F 79% 30.19 in 10.0 mi West 3.5 mph - N/A   Clear
5:03 AM 15.8 °F 8.6 °F 12.2 °F 86% 30.19 in 10.0 mi West 4.6 mph - N/A   Clear
5:24 AM 14.0 °F 6.5 °F 10.4 °F 86% 30.18 in 10.0 mi NW 4.6 mph - N/A   Clear
5:44 AM 14.0 °F 6.5 °F 10.4 °F 86% 30.18 in 10.0 mi WNW 4.6 mph - N/A   Clear
6:04 AM 14.0 °F 5.1 °F 10.4 °F 86% 30.19 in 10.0 mi West 5.8 mph - N/A   Clear
6:24 AM 14.0 °F 8.2 °F 10.4 °F 86% 30.19 in 10.0 mi WNW 3.5 mph - N/A   Clear
6:44 AM 15.8 °F 10.2 °F 12.2 °F 86% 30.20 in 10.0 mi WSW 3.5 mph - N/A   Clear
7:04 AM 14.0 °F 6.5 °F 10.4 °F 86% 30.20 in 10.0 mi West 4.6 mph - N/A   Clear
7:25 AM 15.8 °F 8.6 °F 12.2 °F 86% 30.21 in 10.0 mi West 4.6 mph - N/A   Clear
8:04 AM 19.4 °F 12.8 °F 14.0 °F 80% 30.22 in 10.0 mi West 4.6 mph - N/A   Clear
8:24 AM 19.4 °F 14.3 °F 15.8 °F 86% 30.22 in 10.0 mi WNW 3.5 mph - N/A   Clear
9:04 AM 21.2 °F - 15.8 °F 80% 30.23 in 10.0 mi Calm Calm - N/A   Clear
9:24 AM 24.8 °F - 17.6 °F 74% 30.23 in 10.0 mi Calm Calm - N/A   Clear
10:04 AM 26.6 °F - 17.6 °F 69% 30.25 in 10.0 mi Calm Calm - N/A   Clear
10:25 AM 28.4 °F 24.6 °F 17.6 °F 64% 30.25 in 10.0 mi SSE 3.5 mph - N/A   Clear
10:44 AM 28.4 °F 23.3 °F 17.6 °F 64% 30.25 in 10.0 mi South 4.6 mph - N/A   Clear
11:05 AM 30.2 °F - 19.4 °F 64% 30.25 in 10.0 mi Calm Calm - N/A   Clear
11:24 AM 30.2 °F 24.3 °F 19.4 °F 64% 30.25 in 10.0 mi SW 5.8 mph - N/A   Clear
12:05 PM 32.0 °F 28.7 °F 17.6 °F 55% 30.23 in 10.0 mi SW 3.5 mph - N/A   Clear
12:24 PM 32.0 °F - 17.6 °F 55% 30.22 in 10.0 mi Calm Calm - N/A   Clear
12:44 PM 33.8 °F 29.6 °F 17.6 °F 52% 30.21 in 10.0 mi WSW 4.6 mph - N/A   Clear
1:05 PM 33.8 °F 30.8 °F 17.6 °F 52% 30.21 in 10.0 mi WNW 3.5 mph - N/A   Clear
1:24 PM 33.8 °F 28.6 °F 17.6 °F 52% 30.20 in 10.0 mi West 5.8 mph - N/A   Clear
1:44 PM 33.8 °F 28.6 °F 17.6 °F 52% 30.18 in 10.0 mi SW 5.8 mph - N/A   Clear
2:05 PM 33.8 °F 30.8 °F 17.6 °F 52% 30.18 in 10.0 mi SW 3.5 mph - N/A   Clear
2:24 PM 33.8 °F 28.6 °F 17.6 °F 52% 30.17 in 10.0 mi WSW 5.8 mph - N/A   Clear
3:05 PM 35.6 °F 32.8 °F 17.6 °F 48% 30.17 in 10.0 mi ESE 3.5 mph - N/A   Clear
3:24 PM 33.8 °F 30.8 °F 17.6 °F 52% 30.16 in 10.0 mi West 3.5 mph - N/A   Clear
3:44 PM 35.6 °F - 17.6 °F 48% 30.17 in 10.0 mi Calm Calm - N/A   Clear
4:05 PM 33.8 °F - 17.6 °F 52% 30.16 in 10.0 mi Calm Calm - N/A   Clear
4:24 PM 33.8 °F 30.8 °F 17.6 °F 52% 30.16 in 10.0 mi South 3.5 mph - N/A   Clear
4:45 PM 33.8 °F - 17.6 °F 52% 30.16 in 10.0 mi Calm Calm - N/A   Clear
5:04 PM 33.8 °F 30.8 °F 17.6 °F 52% 30.16 in 10.0 mi South 3.5 mph - N/A   Clear
5:24 PM 30.2 °F 26.7 °F 17.6 °F 60% 30.16 in 10.0 mi South 3.5 mph - N/A   Clear
5:45 PM 30.2 °F 26.7 °F 17.6 °F 60% 30.15 in 10.0 mi South 3.5 mph - N/A   Clear
6:24 PM 28.4 °F - 17.6 °F 64% 30.16 in 10.0 mi Calm Calm - N/A   Clear
7:04 PM 28.4 °F - 15.8 °F 59% 30.16 in 10.0 mi Calm Calm - N/A   Clear
7:24 PM 21.2 °F - 17.6 °F 86% 30.16 in 10.0 mi Calm Calm - N/A   Clear
8:05 PM 21.2 °F - 17.6 °F 86% 30.17 in 10.0 mi Calm Calm - N/A   Clear
8:24 PM 23.0 °F - 19.4 °F 86% 30.17 in 10.0 mi Calm Calm - N/A   Clear
8:44 PM 23.0 °F - 17.6 °F 80% 30.16 in 10.0 mi Calm Calm - N/A   Clear
9:04 PM 21.2 °F - 17.6 °F 86% 30.17 in 10.0 mi Calm Calm - N/A   Clear
9:24 PM 19.4 °F - 15.8 °F 86% 30.17 in 10.0 mi Calm Calm - N/A   Clear
9:44 PM 19.4 °F - 17.6 °F 93% 30.17 in 10.0 mi Calm Calm - N/A   Clear
10:05 PM 19.4 °F - 15.8 °F 86% 30.17 in 10.0 mi Calm Calm - N/A   Clear
10:24 PM 21.2 °F 16.4 °F 17.6 °F 86% 30.16 in 10.0 mi South 3.5 mph - N/A   Clear
10:44 PM 21.2 °F - 17.6 °F 86% 30.16 in 10.0 mi Calm Calm - N/A   Clear
11:04 PM 19.4 °F - 15.8 °F 86% 30.16 in 10.0 mi Calm Calm - N/A   Clear
11:24 PM 19.4 °F - 15.8 °F 86% 30.15 in 10.0 mi Calm Calm - N/A   Clear
11:44 PM 19.4 °F - 15.8 °F 86% 30.15 in 10.0 mi Calm Calm - N/A   Clear